Regional Weather Roundup
Issued by NWS Lake Charles, LA

Home | Current Version | Previous Version | Text Only | Print | Product List | Glossary On
Versions: 1 2 3 4 5 6 7 8 9 10 11 12 13 14 15 16 17 18 19 20 21 22 23 24 25 26 27 28 29 30 31 32 33 34 35 36 37 38 39 40 41 42 43 44 45 46 47 48 49 50
000
ASUS44 KLCH 251610
RWRLCH
RWRLCH
REGIONAL WEATHER ROUNDUP
NATIONAL WEATHER SERVICE LAKE CHARLES LA
1100 AM CDT MON MAY 25 2015

Note: "fair" indicates few or no clouds below 12,000 feet with no
significant weather and/or obstructions to visibility.


ACROSS SOUTHEAST TEXAS

CITY           SKY/WX    TMP DP  RH WIND       PRES   REMARKS
BEAUMONT       PTSUNNY   85  75  72 SE17      29.99F
BEAUMONT CITY  CLOUDY    82  74  77 SE13      30.00F
ORANGE         MOSUNNY   83  71  66 SE13      30.02F
JASPER         PTSUNNY   83  74  76 S9        30.02F
$$

ACROSS CENTRAL LOUISIANA

CITY           SKY/WX    TMP DP  RH WIND       PRES   REMARKS
LEESVILLE      PTSUNNY   81  73  78 S8G18     30.02F
FULLERTON        N/A     85  72  65 VRB5      30.01S
ALEXANDRIA INT MOSUNNY   81  73  76 SE7       30.03S
ESLER FIELD    MOSUNNY   82  71  69 S10       30.05S
DERIDDER       PTSUNNY   82  72  72 SE10      30.04F
OAKDALE        MOSUNNY   83  73  70 SE7       30.04R
OPELOUSAS        N/A    N/A N/A N/A S9        30.05R
$$

ACROSS SOUTHWEST AND SOUTH CENTRAL LOUISIANA

CITY           SKY/WX    TMP DP  RH WIND       PRES   REMARKS
SULPHUR        SUNNY     85  74  68 SE13      30.02F
LAKE CHARLES   SUNNY     85  72  65 S14       30.02S
CHENNAULT INT  PTSUNNY   84  73  70 SE12      30.03S
CAMERON PHI    SUNNY     82  75  78 SE14G20   30.04S
DEQUINCY       PTSUNNY   82  74  77 S8        30.02F
JENNINGS         N/A     83  73  72 SE12      30.04R
LAFAYETTE      MOSUNNY   84  73  69 S10       30.05R
NEW IBERIA     PTSUNNY   84  75  74 S12       30.06R
ABBEVILLE      PTSUNNY   84  76  78 SE10      30.05S
PATTERSON      PTSUNNY   84  73  70 S15       30.07S
SALT POINT       N/A     84  78  82 VRB5      30.04S
$$

SELECTED SITES ACROSS THE REGION

CITY           SKY/WX    TMP DP  RH WIND       PRES   REMARKS
HOUSTON BUSH   PTSUNNY   84  73  69 S18G24    29.95F
HOUSTON HOBBY  MOSUNNY   85  74  69 SE17      29.96S
GALVESTON      PTSUNNY   83  78  85 SE18      29.99S
COLLEGE STAT   CLOUDY    80  71  74 S21G26    29.93S
CONROE         PTSUNNY   83  71  67 S16       29.96F
HUNTSVILLE     PTSUNNY   81  72  74 S10G22    29.95F
LUFKIN         CLOUDY    82  71  69 S13       29.97F
SHREVEPORT     MOSUNNY   81  69  67 SE9       29.99F
MONROE         PTSUNNY   78  71  79 S8        30.05S
NATCHEZ MS     MOSUNNY   81  72  74 S6        30.07S
BATON ROUGE    PTSUNNY   85  75  72 SE12      30.06F
N.O. INTL ARPT CLOUDY    83  74  74 S14       30.08R
SLIDELL        CLOUDY    83  77  82 S12       30.09R
$$

MARINE REPORTS

STATION/POSITION TIME  TEMP    WIND        PRES    VSBY  WAVE
                       AIR SEA DIR/SP/G                  HT/PER
                 (UTC) (F)     (DEG/KT/KT) (MB)    (MI)  (FT/S)
BUOY 30 S HIGH I 1550   80 79  130/ 14/ 17 1014.7S         4/ 7
SEA RIM ST PARK  1600   81     130/ 14/ 17 1016.4R
PORT ARTHUR      1500      76  150/  8/ 12 1016.2R
SABINE PASS N    1500   79 78  150/ 15/ 17 1016.1R
TEXAS POINT      NOT AVBL
CALCASIEU PASS   1500   80 80  150/ 14/ 16   N/A
LK CHARLES BEACH 1500   83 78              1016.9R
MARSH ISLAND     1500   82     170/ 14/ 16   N/A           0
FRESH WATER LOCK 1500   81 80  130/ 12/ 15 1016.9F
AMERADA PASS     1500   83 77  150/  5/ 13 1017.7R
$$


USA.gov is the U.S. government's official web portal to all federal, state and local government web resources and services.